FENGYUN 1C DEB, 30878

Orbit data source: Space-Track

FENGYUN 1C DEB, 30878 is space debris in SSO originally from a launch on Mon, 10 May 1999 UTC launched from the Taiyaun Space Center, China (TSC). Fengyun 1C debris stems from the Chinese weather satellite Fengyun-1C, which was intentionally destroyed by a Chinese anti-satellite missile in 2007. This event dramatically increased the amount of space debris, with thousands of trackable fragments posing hazards to satellites and human spaceflight. The Fengyun 1C debris cloud has become a focal point in discussions about space sustainability and the need for international regulations to prevent the creation of new debris.

Loading next visibility...
Identifier
30878, 1999-025AXQ
Orbit
SSO
Country
Flag of CNCN / PRC
Related business
Manufacturer
Unknown
Mission
Spacecraft
Bus & Motor
Unknown
Mass
Unknown
Launch date (UTC)
1999-05-10 (27 years ago)
Launch vehicle
Unknown
Launch site
Taiyaun Space Center, China (TSC)
Object type
Payload
Rocket body
Debris
Shape & HBR
Unknown shape, 0.1 m
Radar Cross Section
Small (<0.1 m²)

Expand to show TLE details & history
Last TLE update: 11 hours ago

TLE from 11 hours ago
0 FENGYUN 1C DEB
1 30878U 99025AXQ 26122.94312497  .00000792  00000-0  45133-3 0  9990
2 30878  98.7244 125.5980 0039117 251.6753 127.8504 14.12191216983603
Epoch: 2026-05-02T22:38Z
TLE epoch observation values (Epoch: 2026-05-02T22:38:05.997Z)
Latitude
19.64065°
Longitude
-77.90369°
Altitude
871.771 km
Speed
7.409 km/s
True Right ascension
08h 09m 54s
True Declination
19° 32' 02"
Sunlit
Object was in daylight at epoch
Visualization orbit readout
Latitude
Unknown
Longitude
Unknown
Altitude
Unknown
Speed
Unknown
Apparent Right ascension
Unknown
Apparent Declination
Unknown
Sunlit
N/A
Visualization observer readout
Local Sidereal Time
17:29:26
Azimuth
Unknown
Elevation
Unknown
Doppler factor
Unknown
Orbital elements
Apogee altitude
877.323 km
Perigee altitude
820.782 km
Semi-major axis
7,227.19 km
Eccentricity
0.00391
Inclination
98.7244°
RAAN
125.598°
Arg. of periapsis
251.6753°
True anomaly
128.20328°
Mean anomaly
127.8504°
Eccentric anomaly
128.02695°
Mean motion
3.53256 °/min
Orbital period
101.91 mins
BSTAR
0.00045133
Loading maneuver chart data...
Computing Atmospheric mass density...

Documentation

Showing up to 5 results
|